When you browse on this site, cookies collect data to enhance your experience and personalize the content and advertising you see.
Visit our Privacy Policy to learn more. By continuing to use the site, you agree to this use of cookies and data.
  • In Portugal
  • List of Countries
  • For 7 days
  • Water Temperature
  • Satellite Maps
  • Weather Map
  • Weather Widgets
  • user-avatar
    Login

    Hourly Weather Krylovka

    Today, 26 April, Friday

    Time Temperature Precipitation Wind Pressure Humidity
    00:00 +5°C° 0 mm 2 mps 751 mmHg 60%
    01:00 +5°C° 0 mm 1 mps 751 mmHg 61%
    02:00 +5°C° 0 mm 1 mps 751 mmHg 62%
    03:00 +5°C° 0 mm 1 mps 751 mmHg 62%
    04:00 +4°C° 0 mm 1 mps 752 mmHg 63%
    05:00 +4°C° 0 mm 1 mps 752 mmHg 64%
    06:00 +4°C° 0 mm 1 mps 752 mmHg 64%
    07:00 +7°C° 0 mm 1 mps 752 mmHg 56%
    08:00 +9°C° 0 mm 1 mps 752 mmHg 48%
    09:00 +11°C° 0 mm 0 mps 752 mmHg 40%
    10:00 +13°C° 0 mm 1 mps 751 mmHg 35%
    11:00 +13°C° 0 mm 2 mps 751 mmHg 31%
    12:00 +13°C° 0 mm 3 mps 751 mmHg 26%
    13:00 +13°C° 0 mm 3 mps 751 mmHg 25%
    14:00 +14°C° 0 mm 3 mps 750 mmHg 23%
    15:00 +14°C° 0 mm 3 mps 750 mmHg 22%
    16:00 +13°C° 0 mm 3 mps 750 mmHg 23%
    17:00 +13°C° 0 mm 3 mps 750 mmHg 24%
    18:00 +12°C° 0 mm 3 mps 750 mmHg 25%
    19:00 +10°C° 0 mm 2 mps 750 mmHg 28%
    20:00 +9°C° 0 mm 2 mps 751 mmHg 32%
    21:00 +8°C° 0 mm 1 mps 751 mmHg 35%
    22:00 +7°C° 0 mm 1 mps 751 mmHg 37%
    23:00 +7°C° 0 mm 1 mps 751 mmHg 39%

    Tomorrow, 27 April, Saturday

    Time Temperature Precipitation Wind Pressure Humidity
    00:00 +5°C° 0 mm 0 mps 751 mmHg 40%
    01:00 +4°C° 0 mm 0 mps 751 mmHg 43%
    02:00 +4°C° 0 mm 0 mps 751 mmHg 45%
    03:00 +3°C° 0 mm 0 mps 751 mmHg 47%
    04:00 +3°C° 0 mm 0 mps 751 mmHg 48%
    05:00 +3°C° 0 mm 0 mps 752 mmHg 50%
    06:00 +4°C° 0 mm 0 mps 752 mmHg 51%
    07:00 +7°C° 0 mm 1 mps 752 mmHg 45%
    08:00 +10°C° 0 mm 1 mps 751 mmHg 38%
    09:00 +13°C° 0 mm 1 mps 751 mmHg 32%
    10:00 +14°C° 0 mm 2 mps 751 mmHg 30%
    11:00 +16°C° 0 mm 2 mps 751 mmHg 27%
    12:00 +17°C° 0 mm 3 mps 750 mmHg 25%
    13:00 +17°C° 0 mm 3 mps 750 mmHg 25%
    14:00 +18°C° 0 mm 3 mps 750 mmHg 24%
    15:00 +18°C° 0 mm 3 mps 749 mmHg 23%
    16:00 +17°C° 0 mm 3 mps 749 mmHg 26%
    17:00 +17°C° 0 mm 3 mps 749 mmHg 28%
    18:00 +16°C° 0 mm 2 mps 749 mmHg 30%
    19:00 +14°C° 0 mm 2 mps 750 mmHg 33%
    20:00 +12°C° 0 mm 2 mps 750 mmHg 36%
    21:00 +10°C° 0 mm 1 mps 751 mmHg 40%
    22:00 +10°C° 0 mm 1 mps 751 mmHg 41%
    23:00 +9°C° 0 mm 1 mps 751 mmHg 42%

    Day after tomorrow, 28 April, Sunday

    Time Temperature Precipitation Wind Pressure Humidity
    00:00 +9°C° 0 mm 1 mps 751 mmHg 44%
    01:00 +8°C° 0 mm 1 mps 751 mmHg 47%
    02:00 +7°C° 0 mm 1 mps 751 mmHg 49%
    03:00 +7°C° 0 mm 1 mps 751 mmHg 52%
    04:00 +7°C° 0 mm 1 mps 751 mmHg 54%
    05:00 +7°C° 0 mm 1 mps 751 mmHg 55%
    06:00 +7°C° 0 mm 1 mps 751 mmHg 57%
    07:00 +10°C° 0 mm 1 mps 751 mmHg 49%
    08:00 +12°C° 0 mm 2 mps 751 mmHg 41%
    09:00 +15°C° 0 mm 2 mps 751 mmHg 34%
    10:00 +17°C° 0 mm 2 mps 750 mmHg 29%
    11:00 +19°C° 0 mm 2 mps 750 mmHg 24%
    12:00 +21°C° 0 mm 2 mps 750 mmHg 19%
    13:00 +21°C° 0 mm 2 mps 749 mmHg 18%
    14:00 +21°C° 0 mm 2 mps 749 mmHg 18%
    15:00 +21°C° 0 mm 3 mps 748 mmHg 17%
    16:00 +20°C° 0 mm 2 mps 748 mmHg 20%
    17:00 +20°C° 0 mm 1 mps 748 mmHg 24%
    18:00 +19°C° 0 mm 1 mps 748 mmHg 28%
    19:00 +18°C° 0 mm 1 mps 749 mmHg 30%
    20:00 +16°C° 0 mm 2 mps 749 mmHg 33%
    21:00 +14°C° 0 mm 2 mps 750 mmHg 36%
    22:00 +13°C° 0 mm 2 mps 750 mmHg 43%
    23:00 +12°C° 0 mm 2 mps 750 mmHg 50%

    29 April, Monday

    Time Temperature Precipitation Wind Pressure Humidity
    00:00 +10°C° 0 mm 2 mps 750 mmHg 58%
    01:00 +10°C° 0.1 mm 2 mps 750 mmHg 62%
    02:00 +10°C° 0.1 mm 2 mps 750 mmHg 65%
    03:00 +10°C° 0.1 mm 1 mps 750 mmHg 69%
    04:00 +10°C° 0 mm 1 mps 750 mmHg 70%
    05:00 +10°C° 0 mm 1 mps 750 mmHg 71%
    06:00 +9°C° 0 mm 1 mps 750 mmHg 72%
    07:00 +11°C° 0 mm 1 mps 749 mmHg 64%
    08:00 +13°C° 0 mm 2 mps 749 mmHg 56%
    09:00 +15°C° 0 mm 2 mps 749 mmHg 48%
    10:00 +17°C° 0 mm 2 mps 749 mmHg 45%
    11:00 +18°C° 0 mm 2 mps 748 mmHg 42%
    12:00 +20°C° 0 mm 3 mps 748 mmHg 39%
    13:00 +21°C° 0 mm 3 mps 747 mmHg 38%
    14:00 +21°C° 0 mm 3 mps 747 mmHg 38%
    15:00 +21°C° 0 mm 3 mps 746 mmHg 37%
    16:00 +20°C° 0 mm 3 mps 746 mmHg 40%
    17:00 +20°C° 0 mm 3 mps 746 mmHg 44%
    18:00 +19°C° 0 mm 2 mps 746 mmHg 47%
    19:00 +17°C° 0.4 mm 2 mps 746 mmHg 55%
    20:00 +15°C° 0.4 mm 2 mps 746 mmHg 64%
    21:00 +13°C° 0.4 mm 1 mps 747 mmHg 72%
    22:00 +13°C° 0.1 mm 1 mps 747 mmHg 73%
    23:00 +12°C° 0.1 mm 1 mps 747 mmHg 74%

    30 April, Tuesday

    Time Temperature Precipitation Wind Pressure Humidity
    00:00 +12°C° 0.1 mm 1 mps 747 mmHg 75%
    01:00 +11°C° 0 mm 1 mps 747 mmHg 77%
    02:00 +11°C° 0 mm 1 mps 746 mmHg 78%
    03:00 +10°C° 0 mm 1 mps 746 mmHg 80%
    04:00 +10°C° 0 mm 1 mps 746 mmHg 80%
    05:00 +10°C° 0 mm 1 mps 746 mmHg 79%
    06:00 +10°C° 0 mm 1 mps 746 mmHg 79%
    07:00 +10°C° 0.2 mm 2 mps 745 mmHg 75%
    08:00 +12°C° 0.2 mm 2 mps 745 mmHg 70%
    09:00 +12°C° 0.2 mm 3 mps 745 mmHg 65%
    10:00 +13°C° 1 mm 2 mps 744 mmHg 70%
    11:00 +12°C° 1 mm 2 mps 744 mmHg 75%
    12:00 +12°C° 1 mm 2 mps 743 mmHg 80%
    13:00 +12°C° 1.1 mm 2 mps 743 mmHg 81%
    14:00 +12°C° 1.1 mm 2 mps 742 mmHg 82%
    15:00 +11°C° 1.1 mm 3 mps 741 mmHg 83%
    16:00 +12°C° 0.3 mm 3 mps 741 mmHg 81%
    17:00 +12°C° 0.3 mm 3 mps 741 mmHg 80%
    18:00 +13°C° 0.3 mm 3 mps 741 mmHg 79%
    19:00 +12°C° 0.4 mm 2 mps 742 mmHg 80%
    20:00 +10°C° 0.4 mm 2 mps 742 mmHg 81%
    21:00 +10°C° 0.4 mm 1 mps 743 mmHg 83%
    22:00 +9°C° 0 mm 1 mps 743 mmHg 78%
    23:00 +8°C° 0 mm 1 mps 743 mmHg 73%

    1 May, Wednesday

    Time Temperature Precipitation Wind Pressure Humidity
    00:00 +7°C° 0 mm 1 mps 742 mmHg 69%
    01:00 +6°C° 0 mm 2 mps 742 mmHg 68%
    02:00 +6°C° 0 mm 2 mps 742 mmHg 68%
    03:00 +6°C° 0 mm 2 mps 742 mmHg 67%
    04:00 +6°C° 0 mm 2 mps 742 mmHg 68%
    05:00 +6°C° 0 mm 2 mps 742 mmHg 70%
    06:00 +6°C° 0 mm 2 mps 742 mmHg 71%
    07:00 +8°C° 0 mm 3 mps 741 mmHg 59%
    08:00 +8°C° 0 mm 5 mps 741 mmHg 48%
    09:00 +10°C° 0 mm 7 mps 741 mmHg 37%
    10:00 +11°C° 0 mm 7 mps 741 mmHg 32%
    11:00 +12°C° 0 mm 7 mps 740 mmHg 27%
    12:00 +15°C° 0 mm 7 mps 740 mmHg 22%
    13:00 +15°C° 0 mm 7 mps 740 mmHg 23%
    14:00 +15°C° 0 mm 7 mps 740 mmHg 24%
    15:00 +15°C° 0 mm 7 mps 739 mmHg 24%
    16:00 +14°C° 0 mm 5 mps 740 mmHg 30%
    17:00 +13°C° 0 mm 4 mps 740 mmHg 35%
    18:00 +13°C° 0 mm 3 mps 741 mmHg 40%
    19:00 +12°C° 0 mm 2 mps 742 mmHg 45%
    20:00 +11°C° 0 mm 1 mps 742 mmHg 50%
    21:00 +9°C° 0 mm 1 mps 743 mmHg 55%
    22:00 +9°C° 0 mm 1 mps 743 mmHg 56%
    23:00 +7°C° 0 mm 0 mps 744 mmHg 57%
    Show more